Find Starlink 11332

NORAD ID: 61539 Int'l Des: 2024-184 Owner: SPXS Country: US Constellation: starlink operational
別名: STARLINK-11332 [DTC] celestrak
LEOCIRCULAR

現在のビュー

3D地球を読み込み中...

About Starlink 11332

Starlink 11332 (NORAD 61539) is a starlink constellation satellite (v2 mini d2c) launched Oct 15, 2024 by SPXS of US. It operates in LEO, CIRCULAR orbit with a mass of 960.00 kg.

次回通過

Passes for default location (London). Set your location on the main map for personalized predictions.

高度履歴

Loading altitude history...

軌道要素

1 61539U 24184H 26247.80489601 .00001357 00000-0 16061-4 0 9994
2 61539 53.1589 72.9997 0000907 67.4346 292.6768 15.69702656108552
Epoch: Sep 4, 2026 • Age: 22 hours

現在のステータス

高度 360.3 km
遠地点 / 近地点 N/A
速度 7.69 km/s
衛星直下点 4.89°N, 1.75°W
打ち上げ日 Oct 15, 2024
運用期間 1.8 years
タイプ internet

技術仕様

分類 Payload
質量 960.00 kg
乾燥質量 910.00 kg
総質量 960.00 kg
長さ 0.30 m
直径 4.10 m
スパン 29.00 m
形状 Box + pan
製造者 SPXS
バスタイプ Starlink V2MD
フェーズステータス In Orbit
所有者/国 SPXS/US

Most Searched